Regional Weather Roundup
Issued by NWS

Home | Current Version | Previous Version | Graphics & Text | Print | Product List | Glossary On
Versions: 1 2 3 4 5 6 7 8 9 10 11 12 13 14 15 16 17 18 19 20 21 22 23 24 25 26 27 28 29 30 31 32 33 34 35 36 37 38 39 40 41 42 43 44 45 46 47 48 49 50
000
ASUS43 KOAX 260202
RWRNE

WEATHER ROUNDUP FOR NEBRASKA
NATIONAL WEATHER SERVICE OMAHA NE
900 PM CDT TUE JUL 25 2017

NOTES: SATELLITE DATA IS BEING USED TO AUGMENT CLOUD COVER ABOVE
       12000 FEET.
       "FAIR" INDICATES FEW OR NO CLOUDS BELOW 12,000 FEET WITH NO
       SIGNIFICANT WEATHER AND/OR OBSTRUCTIONS TO VISIBILITY.


NEZ001>004-019>022-054>056-260300-
NEBRASKA PANHANDLE

CITY           SKY/WX    TMP DP  RH WIND       PRES   REMARKS
SCOTTSBLUFF    CLOUDY    84  59  42 N16       30.01R
ALLIANCE       CLOUDY    82  61  48 N10       29.97R
CHADRON        MOCLDY    85  54  34 NE15      30.00R
GORDON         FAIR      79  64  61 NE13      30.00R
KIMBALL        CLOUDY    82  55  38 NW16G23   30.07R
SIDNEY         CLOUDY    86  54  33 S8        29.99R
$$

NEZ057>060-069>072-079>082-260300-
SOUTHWEST NEBRASKA

CITY           SKY/WX    TMP DP  RH WIND       PRES   REMARKS
NORTH PLATTE   CLOUDY    92  65  40 SE10      29.88R HX  94
IMPERIAL       CLOUDY    92  61  35 SE15      29.88F HX  92
LEXINGTON      PTCLDY    86  69  56 SE12      29.89F HX  90
MCCOOK         PTCLDY    93  64  38 S12       29.88R HX  94
OGALLALA       CLOUDY    89  64  44 SW6       29.90R HX  90
$$

NEZ005>010-023>029-035>040-094-260300-
NORTH CENTRAL NEBRASKA

CITY           SKY/WX    TMP DP  RH WIND       PRES   REMARKS
VALENTINE      LGT RAIN  77  65  66 N18G24    29.94R
AINSWORTH      TSTM      69  68  95 CALM      29.92R
BROKEN BOW     MOCLDY    87  67  51 SE13      29.89S HX  90
O`NEILL        CLOUDY    86  67  53 S9        29.87F
ORD            CLOUDY    87  62  43 SE13G21   29.87F
THEDFORD       CLOUDY    84  64  49 N10       29.92R
$$

NEZ041-046>049-061>064-073>077-083>087-260300-
SOUTH CENTRAL NEBRASKA

CITY           SKY/WX    TMP DP  RH WIND       PRES   REMARKS
GRAND ISLAND   CLOUDY    83  69  62 SE13      29.92R
AURORA         PTCLDY    81  69  67 SE9       29.92S
HASTINGS       CLOUDY    86  64  47 SE14      29.93S
HEBRON         CLOUDY    86  68  54 SE9       29.93S
HOLDREGE       PTCLDY    83  67  59 SE8       29.91S
KEARNEY        CLOUDY    84  68  58 SE12      29.91S
YORK           CLEAR     82  66  57 S12       29.93S
$$

NEZ011>018-030>034-042>045-260300-
NORTHEAST NEBRASKA

CITY           SKY/WX    TMP DP  RH WIND       PRES   REMARKS
NORFOLK        CLOUDY    84  67  56 SE9       29.90R
ALBION         CLOUDY    84  68  58 S8        29.90F
BLAIR          CLOUDY    87  71  59 S14G20    29.93F HX  93
COLUMBUS       CLOUDY    84  69  60 SE8       29.91F
FREMONT        CLOUDY    87  71  58 SE13      29.92S HX  92
TEKAMAH        MOCLDY    85  72  65 SE10      29.91S HX  91
WAYNE          PTCLDY    83  73  71 S9        29.90S
$$

NEZ050>053-065>068-078-088>093-260300-
SOUTHEAST NEBRASKA

CITY           SKY/WX    TMP DP  RH WIND       PRES   REMARKS
LINCOLN        PTCLDY    88  68  51 S13       29.93S HX  91
OMAHA EPPLEY   CLOUDY    88  71  57 SE15      29.93F HX  94
BEATRICE       PTCLDY    89  69  52 SE13      29.94F HX  93
FALLS CITY     CLOUDY    83  73  72 SE9       29.97R
NEBRASKA CITY  CLOUDY    82  72  70 S8        29.96F
PLATTSMOUTH    CLOUDY    84  72  67 SE9       29.95F
$$

NEZ044-045-051>053-067-260300-
OMAHA AREA

CITY           SKY/WX    TMP DP  RH WIND       PRES   REMARKS
OMAHA EPPLEY   CLOUDY    88  71  57 SE15      29.93F HX  94
BLAIR          CLOUDY    87  71  59 S14G20    29.93F HX  93
FREMONT        CLOUDY    87  71  58 SE13      29.92S HX  92
MILLARD        CLOUDY    89  74  61 SE12      29.93F HX  97
OFFUTT AFB     CLEAR     85  72  66 SE10      29.93F HX  90
PLATTSMOUTH    CLOUDY    84  72  67 SE9       29.95F
WAHOO          FAIR      83  69  62 SE10      29.92S
$$




USA.gov is the U.S. government's official web portal to all federal, state and local government web resources and services.